| time (UTC) | temp F | wind direction | speed MPH | gust MPH | rain 1hr in | rain 24hr in | rain mn in | humidity % | barometer mb |
| 20260502163555 | 53 | 316 | 1.0 | 5.0 | 0.01 | 0.09 | 0.09 | 90 | 1014.0 |
| 20260502162554 | 53 | 105 | 1.0 | 4.0 | 0.00 | 0.08 | 0.08 | 90 | 1014.3 |
| 20260502161553 | 53 | 102 | 1.0 | 2.0 | 0.00 | 0.08 | 0.08 | 91 | 1014.5 |
| 20260502160554 | 53 | 152 | 1.0 | 4.0 | 0.01 | 0.08 | 0.08 | 91 | 1014.4 |
| 20260502152033 | 53 | 203 | 1.0 | 4.0 | 0.02 | 0.08 | 0.08 | 91 | 1014.1 |
| 20260502150551 | 53 | 182 | 1.0 | 2.0 | 0.02 | 0.07 | 0.07 | 91 | 1014.2 |
| 20260502130550 | 52 | 0 | 2.0 | 3.0 | 0.01 | 0.02 | 0.02 | 90 | 1013.2 |
| 20260502123546 | 52 | 359 | 2.0 | 3.0 | 0.00 | 0.01 | 0.01 | 90 | 1013.1 |
| 20260502122546 | 52 | 359 | 2.0 | 5.0 | 0.01 | 0.01 | 0.01 | 90 | 1012.8 |
| 20260502121547 | 52 | 359 | 1.0 | 3.0 | 0.01 | 0.01 | 0.01 | 90 | 1012.7 |
| 20260502120545 | 52 | 359 | 1.0 | 3.0 | 0.01 | 0.01 | 0.01 | 90 | 1012.8 |
| 20260502115544 | 52 | 359 | 1.0 | 2.0 | 0.01 | 0.01 | 0.01 | 89 | 1012.7 |
| 20260502114545 | 52 | 359 | 1.0 | 2.0 | 0.01 | 0.01 | 0.01 | 89 | 1012.9 |
| 20260502113545 | 52 | 359 | 1.0 | 5.0 | 0.01 | 0.01 | 0.01 | 89 | 1012.9 |
| 20260502112543 | 52 | 359 | 2.0 | 5.0 | 0.00 | 0.00 | 0.00 | 89 | 1012.9 |
| 20260502111540 | 53 | 358 | 1.0 | 4.0 | 0.00 | 0.00 | 0.00 | 89 | 1013.1 |
| 20260502110541 | 53 | 357 | 0.0 | 2.0 | 0.00 | 0.00 | 0.00 | 88 | 1013.1 |
| 20260502110033 | 53 | 357 | 1.0 | 4.0 | 0.00 | 0.00 | 0.00 | 88 | 1013.1 |
| 20260502104541 | 53 | 356 | 1.0 | 5.0 | 0.00 | 0.00 | 0.00 | 88 | 1013.1 |
| 20260502104024 | 53 | 47 | 1.0 | 4.0 | 0.00 | 0.00 | 0.00 | 89 | 1013.1 |
| 20260502102540 | 53 | 57 | 1.0 | 4.0 | 0.00 | 0.00 | 0.00 | 89 | 1013.0 |
| 20260502101541 | 53 | 126 | 1.0 | 3.0 | 0.00 | 0.00 | 0.00 | 90 | 1013.1 |
| 20260502100540 | 53 | 131 | 0.0 | 0.0 | 0.00 | 0.00 | 0.00 | 91 | 1013.1 |
| 20260502090535 | 52 | 138 | 0.0 | 0.0 | 0.00 | 0.00 | 0.00 | 91 | 1012.9 |
| 20260502071532 | 52 | 140 | 0.0 | 0.0 | 0.00 | 0.00 | 0.00 | 90 | 1012.5 |
| 20260502070532 | 52 | 140 | 0.0 | 0.0 | 0.00 | 0.00 | 0.00 | 90 | 1012.3 |
| 20260502065531 | 52 | 140 | 0.0 | 0.0 | 0.00 | 0.00 | 0.00 | 90 | 1012.5 |
| 20260502065458 | 52 | 140 | 0.0 | 0.0 | 0.00 | 0.00 | 0.00 | 90 | 1012.3 |
| 20260502063532 | 52 | 140 | 0.0 | 0.0 | 0.00 | 0.00 | 0.00 | 90 | 1012.4 |
| 20260502062529 | 52 | 140 | 0.0 | 0.0 | 0.00 | 0.00 | 0.00 | 89 | 1012.5 |
| 20260502062008 | 52 | 140 | 0.0 | 0.0 | 0.00 | 0.00 | 0.00 | 89 | 1012.5 |
| 20260502060531 | 52 | 140 | 0.0 | 0.0 | 0.00 | 0.00 | 0.00 | 89 | 1012.6 |
| 20260502055529 | 52 | 140 | 0.0 | 0.0 | 0.00 | 0.00 | 0.00 | 89 | 1012.7 |
| 20260502054528 | 52 | 140 | 0.0 | 0.0 | 0.00 | 0.00 | 0.00 | 89 | 1013.3 |
| 20260502053529 | 53 | 140 | 0.0 | 0.0 | 0.00 | 0.00 | 0.00 | 88 | 1012.9 |
| 20260502052530 | 53 | 140 | 0.0 | 0.0 | 0.00 | 0.00 | 0.00 | 88 | 1012.9 |
| 20260502051523 | 53 | 140 | 0.0 | 0.0 | 0.00 | 0.00 | 0.00 | 88 | 1013.1 |
| 20260502050524 | 53 | 140 | 0.0 | 0.0 | 0.00 | 0.00 | 0.00 | 87 | 1013.1 |
| 20260502045521 | 53 | 140 | 0.0 | 0.0 | 0.00 | 0.00 | 0.00 | 87 | 1013.1 |
| 20260502044520 | 53 | 140 | 0.0 | 0.0 | 0.00 | 0.00 | 0.00 | 87 | 1013.1 |
| 20260502043520 | 53 | 140 | 0.0 | 0.0 | 0.00 | 0.00 | 0.00 | 86 | 1013.1 |
| 20260502042521 | 53 | 140 | 0.0 | 0.0 | 0.00 | 0.00 | 0.00 | 86 | 1013.2 |
| 20260502041518 | 53 | 140 | 0.0 | 0.0 | 0.00 | 0.00 | 0.00 | 86 | 1013.3 |
| 20260502041432 | 53 | 140 | 0.0 | 0.0 | 0.00 | 0.00 | 0.00 | 85 | 1013.4 |
| 20260502035513 | 53 | 140 | 0.0 | 0.0 | 0.00 | 0.00 | 0.00 | 85 | 1013.4 |
| 20260502035001 | 53 | 140 | 0.0 | 0.0 | 0.00 | 0.00 | 0.00 | 85 | 1013.4 |
| 20260502033945 | 53 | 140 | 0.0 | 1.0 | 0.00 | 0.00 | 0.00 | 85 | 1013.4 |
| 20260502032513 | 53 | 140 | 0.0 | 1.0 | 0.00 | 0.00 | 0.00 | 85 | 1013.4 |
| 20260502031515 | 53 | 140 | 0.0 | 1.0 | 0.00 | 0.00 | 0.00 | 85 | 1013.4 |
| 20260502030515 | 53 | 140 | 0.0 | 2.0 | 0.00 | 0.00 | 0.00 | 84 | 1013.5 |
| 20260502025922 | 53 | 138 | 0.0 | 2.0 | 0.00 | 0.00 | 0.00 | 84 | 1013.6 |
| 20260502025705 | 53 | 139 | 0.0 | 3.0 | 0.00 | 0.00 | 0.00 | 84 | 1013.5 |
| 20260502023511 | 54 | 137 | 0.0 | 3.0 | 0.00 | 0.00 | 0.00 | 84 | 1013.5 |
| 20260502022511 | 54 | 133 | 1.0 | 3.0 | 0.00 | 0.00 | 0.00 | 84 | 1013.6 |
| 20260502021507 | 54 | 115 | 1.0 | 3.0 | 0.00 | 0.00 | 0.00 | 84 | 1013.6 |
| 20260502020509 | 54 | 101 | 1.0 | 3.0 | 0.00 | 0.00 | 0.00 | 84 | 1013.6 |
| 20260502015508 | 54 | 88 | 0.0 | 2.0 | 0.00 | 0.00 | 0.00 | 84 | 1013.6 |
| 20260502014508 | 53 | 88 | 0.0 | 2.0 | 0.00 | 0.00 | 0.00 | 84 | 1013.5 |
| 20260502013507 | 53 | 88 | 0.0 | 0.0 | 0.00 | 0.00 | 0.00 | 84 | 1013.6 |
| 20260502012507 | 53 | 88 | 0.0 | 1.0 | 0.00 | 0.00 | 0.00 | 83 | 1013.6 |
| 20260502011507 | 53 | 88 | 0.0 | 1.0 | 0.00 | 0.00 | 0.00 | 82 | 1013.7 |
| 20260502010509 | 54 | 88 | 0.0 | 1.0 | 0.00 | 0.00 | 0.00 | 80 | 1013.3 |
| 20260502005509 | 54 | 88 | 0.0 | 0.0 | 0.00 | 0.00 | 0.00 | 79 | 1013.4 |
| 20260502004507 | 54 | 88 | 0.0 | 1.0 | 0.00 | 0.00 | 0.00 | 79 | 1013.3 |
| 20260502003459 | 55 | 88 | 0.0 | 1.0 | 0.00 | 0.00 | 0.00 | 78 | 1013.1 |
| 20260502002934 | 55 | 88 | 0.0 | 2.0 | 0.00 | 0.00 | 0.00 | 78 | 1013.0 |
| 20260502001939 | 55 | 84 | 0.0 | 2.0 | 0.00 | 0.00 | 0.00 | 78 | 1013.1 |
| 20260502000459 | 55 | 142 | 0.0 | 1.0 | 0.00 | 0.00 | 0.00 | 77 | 1012.9 |
| 20260501235931 | 56 | 142 | 0.0 | 2.0 | 0.00 | 0.00 | 0.00 | 77 | 1013.2 |
| 20260501234455 | 56 | 142 | 0.0 | 3.0 | 0.00 | 0.00 | 0.00 | 76 | 1013.1 |
| 20260501233454 | 56 | 152 | 0.0 | 4.0 | 0.00 | 0.00 | 0.00 | 76 | 1013.0 |
| 20260501232454 | 56 | 139 | 1.0 | 3.0 | 0.00 | 0.00 | 0.00 | 75 | 1013.0 |
| 20260501231449 | 56 | 163 | 1.0 | 4.0 | 0.00 | 0.00 | 0.00 | 75 | 1012.9 |
| 20260501230449 | 56 | 177 | 1.0 | 3.0 | 0.00 | 0.00 | 0.00 | 74 | 1013.0 |
| 20260501225448 | 56 | 220 | 0.0 | 3.0 | 0.00 | 0.00 | 0.00 | 73 | 1012.8 |
| 20260501224447 | 56 | 260 | 1.0 | 3.0 | 0.00 | 0.00 | 0.00 | 73 | 1013.1 |
| 20260501223447 | 56 | 91 | 1.0 | 4.0 | 0.00 | 0.00 | 0.00 | 73 | 1013.3 |
| 20260501222923 | 56 | 162 | 1.0 | 6.0 | 0.00 | 0.00 | 0.00 | 74 | 1013.5 |
| 20260501221445 | 56 | 121 | 1.0 | 6.0 | 0.00 | 0.00 | 0.00 | 74 | 1013.5 |
| 20260501220446 | 56 | 187 | 1.0 | 4.0 | 0.00 | 0.00 | 0.00 | 73 | 1013.7 |
| 20260501215446 | 56 | 155 | 1.0 | 4.0 | 0.00 | 0.00 | 0.00 | 75 | 1013.7 |
| 20260501214922 | 56 | 158 | 1.0 | 4.0 | 0.00 | 0.00 | 0.00 | 75 | 1013.6 |
| 20260501213446 | 56 | 196 | 2.0 | 5.0 | 0.00 | 0.00 | 0.00 | 73 | 1013.8 |
| 20260501212446 | 56 | 156 | 2.0 | 6.0 | 0.00 | 0.00 | 0.00 | 73 | 1013.6 |
| 20260501211443 | 56 | 146 | 2.0 | 7.0 | 0.00 | 0.00 | 0.00 | 73 | 1013.7 |
| 20260501210443 | 56 | 73 | 1.0 | 4.0 | 0.00 | 0.00 | 0.00 | 75 | 1013.6 |
| 20260501205444 | 57 | 175 | 2.0 | 8.0 | 0.00 | 0.00 | 0.00 | 75 | 1013.7 |
| 20260501204442 | 58 | 138 | 2.0 | 7.0 | 0.00 | 0.00 | 0.00 | 72 | 1013.8 |
| 20260501203444 | 60 | 158 | 2.0 | 12.0 | 0.00 | 0.00 | 0.00 | 67 | 1013.7 |
| 20260501202443 | 62 | 182 | 1.0 | 6.0 | 0.00 | 0.00 | 0.00 | 59 | 1013.7 |
| 20260501201444 | 63 | 202 | 2.0 | 8.0 | 0.00 | 0.00 | 0.00 | 55 | 1013.6 |
| 20260501200442 | 64 | 236 | 2.0 | 9.0 | 0.00 | 0.00 | 0.00 | 54 | 1013.7 |
| 20260501195436 | 66 | 302 | 2.0 | 8.0 | 0.00 | 0.00 | 0.00 | 53 | 1013.9 |
| 20260501194438 | 64 | 151 | 2.0 | 9.0 | 0.00 | 0.00 | 0.00 | 56 | 1013.9 |
| 20260501193438 | 65 | 169 | 3.0 | 10.0 | 0.00 | 0.00 | 0.00 | 54 | 1014.0 |
| 20260501192438 | 64 | 137 | 3.0 | 9.0 | 0.00 | 0.00 | 0.00 | 54 | 1014.0 |
| 20260501191917 | 66 | 146 | 2.0 | 9.0 | 0.00 | 0.00 | 0.00 | 50 | 1014.2 |
| 20260501190919 | 65 | 213 | 1.0 | 4.0 | 0.00 | 0.00 | 0.00 | 52 | 1014.3 |
| 20260501185436 | 65 | 141 | 1.0 | 6.0 | 0.00 | 0.00 | 0.00 | 50 | 1014.4 |
| 20260501184437 | 63 | 198 | 2.0 | 7.0 | 0.00 | 0.00 | 0.00 | 52 | 1014.8 |
| 20260501183437 | 64 | 286 | 1.0 | 5.0 | 0.00 | 0.00 | 0.00 | 52 | 1015.2 |
| 20260501182431 | 64 | 162 | 1.0 | 6.0 | 0.00 | 0.00 | 0.00 | 52 | 1015.1 |
| 20260501181430 | 64 | 156 | 2.0 | 5.0 | 0.00 | 0.00 | 0.00 | 51 | 1014.9 |
| 20260501180433 | 64 | 247 | 1.0 | 8.0 | 0.00 | 0.00 | 0.00 | 52 | 1015.0 |
| 20260501175429 | 65 | 92 | 1.0 | 6.0 | 0.00 | 0.00 | 0.00 | 51 | 1015.1 |
| 20260501174429 | 64 | 135 | 3.0 | 7.0 | 0.00 | 0.00 | 0.00 | 48 | 1015.1 |
| 20260501173430 | 64 | 167 | 3.0 | 8.0 | 0.00 | 0.00 | 0.00 | 51 | 1015.1 |
| 20260501172904 | 64 | 246 | 2.0 | 9.0 | 0.00 | 0.00 | 0.00 | 48 | 1015.2 |